Regional Weather Roundup
Issued by NWS Upton, NY

Home | Current Version | Previous Version | Text Only | Print | Product List | Glossary On
Versions: 1 2 3 4 5 6 7 8 9 10 11 12 13 14 15 16 17 18 19 20 21 22 23 24 25 26 27 28 29 30 31 32 33 34 35 36 37 38 39 40 41 42 43 44 45 46 47 48 49 50
000
ASUS41 KOKX 262208
RWROKX

REGIONAL WEATHER ROUNDUP
NATIONAL WEATHER SERVICE NEW YORK NY
600 PM EDT MON SEP 26 2016

NOTE: "FAIR" INDICATES FEW OR NO CLOUDS BELOW 12,000 FEET WITH NO
SIGNIFICANT WEATHER AND/OR OBSTRUCTIONS TO VISIBILITY.

NYZ071-072-176-178-NJZ106-104-262300-
NEW YORK CITY METRO AREA

CITY           SKY/WX    TMP DP  RH WIND       PRES   REMARKS
Central Park   MOCLDY    67  49  52 VRB6      30.09S
LaGuardia APRT CLOUDY    70  49  47 S17       30.06S
Kennedy INTL   MOCLDY    68  49  50 S16       30.08S
Newark/Liberty MOCLDY    70  50  49 SE14G22   30.05S
Bronx Bot Gard   N/A     66  48  52 SW6       30.09R
Wall St Helipt CLOUDY    70  54  56 S9G16     30.08R
Teterboro      CLOUDY    69  48  47 S10       30.05R
$$

NYZ177-179-078>081-262300-
LONG ISLAND NEW YORK

CITY           SKY/WX    TMP DP  RH WIND       PRES   REMARKS
Farmingdale    CLEAR     67  51  56 S12       30.09S
MacArthur/ISP  MOCLDY    66  50  56 S10       30.08F
Shirley        PTCLDY    67  51  56 S8        30.10F
Riverhead      NOT AVBL
Westhampton    PTCLDY    65  48  54 S7        30.11F
Southampton      N/A     66  52  59 S12       30.07F
Bridgehampton    N/A     63  52  67 S1        29.96F
East Hampton   FAIR      63  49  59 S6        30.10F
Montauk          N/A     64  50  60 VRB5      30.13F
$$

NYZ052-065-067-262300-
HUDSON VALLEY

CITY           SKY/WX    TMP DP  RH WIND       PRES   REMARKS
White Plains   MOCLDY    66  50  56 S10       30.06S
Newburgh       MOCLDY    68  54  60 S9        30.06R
Montgomery     CLOUDY    69  51  52 S9        30.02F
Poughkeepsie   CLOUDY    69  49  48 S7        30.02F
Albany         MOCLDY    67  47  48 SE9       29.98F
$$

NJZ001-105-106-008-010-013-015-019>022-104-262300-
NEW JERSEY

CITY           SKY/WX    TMP DP  RH WIND       PRES   REMARKS
Newark/Liberty MOCLDY    70  50  49 SE14G22   30.05S
Teterboro      CLOUDY    69  48  47 S10       30.05R
Caldwell       CLOUDY    69  50  50 S9        30.05S
Morristown     NOT AVBL
Somerville     CLOUDY    69  49  48 S7        30.03S
Linden         NOT AVBL
Sussex         CLOUDY    67  52  58 VRB5      30.04F
Abdover          N/A     64  55  72 CALM      30.05S
Trenton        CLOUDY    69  47  45 S13       30.05F
Millville      CLOUDY    69  58  67 SE8       30.06F
Atlantic City  CLOUDY    69  55  60 S7        30.07F
Wrightstown    CLOUDY    68  50  53 S7        30.04S
Toms River     CLOUDY    67  53  61 S7        30.08S
Belmar         CLOUDY    67  51  56 S9        30.08S
$$

PAZ047>061-062-071-262300-
EASTERN PENNSYLVANIA

CITY           SKY/WX    TMP DP  RH WIND       PRES   REMARKS
Philadelphia   CLOUDY    70  51  51 S10       30.05F
Allentown      CLOUDY    68  50  52 S7        30.04F
Scranton       CLOUDY    64  53  67 SW6       30.02R
$$

CTZ002-004>006-009-010-012-RIZ004-006-007-MAZ004-011-015-262300-
SOUTHERN NEW ENGLAND
 IN CT

CITY           SKY/WX    TMP DP  RH WIND       PRES   REMARKS
Bradley INTL   CLOUDY    65  48  54 S12       30.06F
Hartford       PTCLDY    65  49  56 SE9       30.06F
Danbury        MOCLDY    65  49  56 S8        30.07S
Wtrbury/Oxford MOCLDY    64  46  52 S12       30.08F
Bridgeport     CLOUDY    69  50  50 S13G20    30.07F
Meriden        PTCLDY    67  48  50 S7        30.07F
New Haven      MOCLDY    66  51  58 S14       30.08F
Chester        FAIR      64  48  55 S12       30.09F
Groton         CLEAR     66  50  56 S16       30.10F
Wilimantic     CLOUDY    65  49  56 S9        30.10F

 IN RI

CITY           SKY/WX    TMP DP  RH WIND       PRES   REMARKS
Providence     CLOUDY    63  46  54 SW9       30.11S
Block Island   CLEAR     63  48  58 S8        30.13F
Westerly       CLEAR     64  45  49 S8        30.12F
 IN MA

CITY           SKY/WX    TMP DP  RH WIND       PRES   REMARKS
Boston         CLOUDY    61  46  57 SE13      30.08F
Worcester      CLOUDY    60  41  49 S8        30.08F
Westfield      MOCLDY    65  49  56 S9        30.05F
Provincetown   CLEAR     60  46  59 SE8       30.11F
Nantucket      CLEAR     60  42  51 SW10      30.14S
$$

ANZ330-335-338-340-345-350-353-355-262300-
COASTAL MARINE OBSERVATIONS


STATION/POSITION TIME  SKY/WX   TEMP    WIND        PRES    VSBY  WAVE
                                AIR SEA DIR/SP/G                  HT/PER
                 (UTC)          (F)     (DEG/KT/KT) (MB)    (MI)  (FT/S)
NY HARB ENTRANCE 2050            67 72  170/ 14/ 17 1018.5          2/ 9
20S FIRE ISLAND  2050            66 69  160/ 12/ 14 1018.7          2/10
GREAT SOUTH BAY  2115            67 70  180/ 12/ 14   N/A
23 SSW MONTAUK P 2150            65 68  200/ 10/ 14 1020.1          2/10
15 E BARNEGAT LI 2130               70                N/A           3/ 8
HUDSON CANYON    2050            67 70              1019.8          2/ 9
KINGS POINT      2130            68 73              1017.8
EXECUTION ROCKS  2145            69     160/ 12/ 17   N/A
CENTRAL LI SOUND 2130            67 72  180/ 14/ 17   N/A           1/ 3
EASTERN LI SOUND NOT AVBL
ROBBINS REEF     2130            67     160/ 23/ 26 1017.9
$$


>>>>>>>>>>>>>>>>>>>>>>>>>>>> KEY <<<<<<<<<<<<<<<<<<<<<<<<<<<
>                                                          <
>     SKY/WX - Sky Condition/Present Weather               <
>     TMP    - Temperature in Fahrenheit                   <
>     DP     - Dew Point in Fahrenheit                     <
>     RH     - Relative Humidity in Percent                <
>     WIND   - Direction (from) and Speed in MPH           <
>     PRES   - Mean Sea Level Pressure (inches of Hg)      <
>     WCI    - Wind Chill Index                            <
>     VSB    - VISIBILITY IN MILES                         <
>     HX     - HEAT INDEX                                  <
>     TC     - TEMPERATURE IN CELSIUS                      <
>     VRB    - VARIABLE WIND DIRECTION                     <
>                                                          <
>>>>>>>>>>>>>>>>>>>>>>>>>>>> KEY <<<<<<<<<<<<<<<<<<<<<<<<<<<



USA.gov is the U.S. government's official web portal to all federal, state and local government web resources and services.